Regional Weather Roundup
Issued by NWS Sioux Falls, SD

Home | Current Version | Previous Version | Text Only | Print | Product List | Glossary Off
Versions: 1 2 3 4 5 6 7 8 9 10 11 12 13 14 15 16 17 18 19 20 21 22 23 24 25 26 27 28 29 30 31 32 33 34 35 36 37 38 39 40 41 42 43 44 45 46 47 48 49 50

000
ASUS43 KFSD 180802
RWRFSD

WEATHER ROUNDUP FOR SE SOUTH DAKOTA/SW MINNESOTA/NW IOWA
NATIONAL WEATHER SERVICE SIOUX FALLS SD
200 AM CST WED JAN 18 2017

NOTE: "FAIR" INDICATES FEW OR NO CLOUDS BELOW 12,000 FEET WITH NO
SIGNIFICANT WEATHER AND OR OBSTRUCTIONS TO VISIBILITY.


SDZ038>040-050-052>070-180900-
SOUTHEAST SOUTH DAKOTA

CITY           SKY/WX    TMP DP  RH WIND       PRES   REMARKS
BROOKINGS      CLOUDY    24  22  91 SW9       29.88S WCI  14
CHAMBERLAIN    CLOUDY    19  17  90 CALM      29.88S
HURON          CLOUDY    22  21  96 SE6       29.89R WCI  14
MADISON          N/A     23  23 100 SW10        N/A  WCI  12
MITCHELL       CLOUDY    21  21 100 CALM      29.91R
SIOUX FALLS    CLOUDY    30  28  92 S14       29.93F WCI  19
WINNER         FAIR      32  20  61 SW10      29.87S WCI  24
YANKTON        CLOUDY    30  27  86 S7        29.95S WCI  23
$$

MNZ071-072-080-081-089-090-097-098-180900-
SOUTHWEST MINNESOTA

CITY           SKY/WX    TMP DP  RH WIND       PRES   REMARKS
FAIRMONT       CLOUDY    27  26  96 S15       29.99S WCI  15
JACKSON        CLOUDY    27  23  86 S6        29.97S WCI  20
LUVERNE        CLEAR     23  21  93 S6        29.95F WCI  16
MARSHALL       CLOUDY    30  26  85 SW15      29.88R WCI  19
MONTEVIDEO     CLOUDY    23  21  93 SW7       29.90S WCI  15
PIPESTONE      CLOUDY    28  27  93 SW16      29.89F WCI  17
REDWOOD FALLS  CLOUDY    23  19  85 S5        29.92S WCI  17
TRACY          CLOUDY    32  28  86 SW26G33   29.86F WCI  18
WINDOM         CLOUDY    27  25  93 S9        29.94F WCI  17
WORTHINGTON    CLOUDY    28  26  92 S16       29.94F WCI  16
$$

IAZ001>003-012>014-020>022-031-032-NEZ013-014-SDZ071-180900-
NORTHWEST IOWA

CITY           SKY/WX    TMP DP  RH WIND       PRES   REMARKS
CHEROKEE       CLOUDY    27  27 100 S6        30.02F WCI  21
DENISON        CLOUDY    28  28 100 SW7G14    30.06S FOG     WCI  21
ESTHERVILLE    CLOUDY    25  25 100 S10       29.98F WCI  15
LE MARS        CLOUDY    28  27  93 S8        30.02R WCI  20
ORANGE CITY    CLOUDY    27  27 100 S8        29.98F FOG     WCI  18
SHELDON        CLOUDY    28  28 100 S9        29.96F WCI  20
SIOUX CITY     CLOUDY    28  26  92 SE9       30.03S WCI  19
SPENCER        CLOUDY    27  25  92 S13       30.00S WCI  16
STORM LAKE     CLOUDY    27  25  93 S9        30.03S FOG     WCI  17
$$

ABBREVIATIONS USED IN REMARKS
   TC - TEMPERATURE IN CELSIUS
  WCI - WIND CHILL INDEX
   HX - HEAT INDEX
  VSB - VISIBILITY




USA.gov is the U.S. government's official web portal to all federal, state and local government web resources and services.